Overview Statistics Trail Chart Weather Telemetry Raw packets
 

This is the latest recevied weather packets stored in our database for station/object KI5NXU. If no packets are shown the sender has not sent any weather packets the latest 10 day(s).

<< 91 92 93 94 95 96 97 >>
Time Temp. Humidity Pressure Rain* Wind** Luminosity Snow
1787710687 35.56° C 27% 1013.4 hPa 0 mm - 0 W/m² -
1787710387 35.56° C 27% 1013.2 hPa 0 mm - 0 W/m² -
1787710082 35.56° C 27% 1013.3 hPa 0 mm - 0 W/m² -
1787709778 36.11° C 27% 1013 hPa 0 mm - 0 W/m² -
1787709473 36.11° C 26% 1013.4 hPa 0 mm - 0 W/m² -
1787709169 36.11° C 27% 1013.2 hPa 0 mm - 0 W/m² -
1787708866 36.67° C 27% 1013.2 hPa 0 mm - 0 W/m² -
1787708565 36.67° C 27% 1012.8 hPa 0 mm - 0 W/m² -
1787708260 36.67° C 27% 1012.9 hPa 0 mm - 0 W/m² -
1787707955 36.67° C 27% 1012.9 hPa 0 mm - 0 W/m² -
1787707651 36.67° C 27% 1012.8 hPa 0 mm - 0 W/m² -
1787707347 36.67° C 27% 1012.8 hPa 0 mm - 0 W/m² -
1787707042 36.67° C 28% 1013 hPa 0 mm - 0 W/m² -
1787706741 37.22° C 28% 1013.2 hPa 0 mm - 0 W/m² -
1787706437 37.22° C 28% 1012.9 hPa 0 mm - 0 W/m² -
1787706132 37.22° C 28% 1012.7 hPa 0 mm - 0 W/m² -
1787705828 37.22° C 28% 1012.9 hPa 0 mm - 3 W/m² -
1787705522 37.22° C 28% 1012.8 hPa 0 mm - 7 W/m² -
1787705219 37.78° C 28% 1012.6 hPa 0 mm - 12 W/m² -
1787704919 37.78° C 28% 1012.7 hPa 0 mm - 15 W/m² -
1787704615 37.78° C 28% 1012.5 hPa 0 mm - 16 W/m² -
1787704311 37.78° C 28% 1012.6 hPa 0 mm - 23 W/m² -
1787704009 37.78° C 27% 1012.8 hPa 0 mm - 25 W/m² -
1787703704 38.33° C 27% 1012.7 hPa 0 mm - 27 W/m² -
1787703400 38.33° C 27% 1012.7 hPa 0 mm - 32 W/m² -

* Rain latest hour (hover to see other rain measurements)
** Current wind speed in m/s (hover to see current wind gust speed)